When you browse on this site, cookies collect data to enhance your experience and personalize the content and advertising you see.
Visit our Privacy Policy to learn more. By continuing to use the site, you agree to this use of cookies and data.
  • In Hungary
  • List of Countries
  • For 7 days
  • Water Temperature
  • Satellite Maps
  • Weather Map
  • News
  • Weather Widgets
  • user-avatar
    Login

    Hourly Weather Filiasi

    Today, 25 March, Monday

    Time Temperature Precipitation Wind Pressure Humidity
    00:00 +12°C° 0 mm 1 mps 753 mmHg 49%
    01:00 +11°C° 0 mm 1 mps 753 mmHg 51%
    02:00 +10°C° 0 mm 0 mps 752 mmHg 53%
    03:00 +10°C° 0 mm 0 mps 752 mmHg 54%
    04:00 +9°C° 0 mm 0 mps 751 mmHg 56%
    05:00 +9°C° 0 mm 0 mps 751 mmHg 57%
    06:00 +9°C° 0 mm 0 mps 751 mmHg 56%
    07:00 +10°C° 0 mm 0 mps 750 mmHg 55%
    08:00 +11°C° 0 mm 0 mps 750 mmHg 51%
    09:00 +13°C° 0 mm 0 mps 749 mmHg 47%
    10:00 +16°C° 0 mm 1 mps 749 mmHg 43%
    11:00 +19°C° 0 mm 1 mps 749 mmHg 39%
    12:00 +19°C° 0 mm 2 mps 748 mmHg 36%
    13:00 +20°C° 0 mm 2 mps 748 mmHg 32%
    14:00 +22°C° 0 mm 3 mps 747 mmHg 29%
    15:00 +22°C° 0 mm 3 mps 747 mmHg 30%
    16:00 +22°C° 0 mm 3 mps 747 mmHg 30%
    17:00 +22°C° 0 mm 4 mps 746 mmHg 31%
    18:00 +19°C° 0 mm 3 mps 746 mmHg 38%
    19:00 +17°C° 0 mm 3 mps 746 mmHg 45%
    20:00 +14°C° 0 mm 3 mps 746 mmHg 52%
    21:00 +14°C° 0 mm 3 mps 746 mmHg 55%
    22:00 +13°C° 0 mm 3 mps 747 mmHg 59%
    23:00 +13°C° 0 mm 2 mps 747 mmHg 62%

    Tomorrow, 26 March, Tuesday

    Time Temperature Precipitation Wind Pressure Humidity
    00:00 +13°C° 0 mm 2 mps 747 mmHg 62%
    01:00 +13°C° 0 mm 2 mps 748 mmHg 61%
    02:00 +13°C° 0 mm 2 mps 748 mmHg 61%
    03:00 +12°C° 0 mm 2 mps 748 mmHg 60%
    04:00 +12°C° 0 mm 2 mps 749 mmHg 60%
    05:00 +12°C° 0 mm 2 mps 749 mmHg 60%
    06:00 +12°C° 0 mm 2 mps 749 mmHg 60%
    07:00 +12°C° 0 mm 2 mps 750 mmHg 60%
    08:00 +12°C° 0 mm 2 mps 751 mmHg 61%
    09:00 +13°C° 0 mm 2 mps 751 mmHg 55%
    10:00 +14°C° 0 mm 2 mps 751 mmHg 50%
    11:00 +16°C° 0 mm 1 mps 752 mmHg 45%
    12:00 +16°C° 0 mm 1 mps 752 mmHg 43%
    13:00 +18°C° 0 mm 1 mps 752 mmHg 41%
    14:00 +18°C° 0 mm 1 mps 752 mmHg 39%
    15:00 +17°C° 0.1 mm 2 mps 752 mmHg 41%
    16:00 +17°C° 0.1 mm 2 mps 752 mmHg 43%
    17:00 +16°C° 0.1 mm 2 mps 752 mmHg 45%
    18:00 +15°C° 0.3 mm 2 mps 753 mmHg 52%
    19:00 +13°C° 0.3 mm 3 mps 753 mmHg 59%
    20:00 +12°C° 0.3 mm 3 mps 754 mmHg 67%
    21:00 +11°C° 0.2 mm 3 mps 754 mmHg 70%
    22:00 +10°C° 0.2 mm 2 mps 755 mmHg 74%
    23:00 +10°C° 0.2 mm 2 mps 755 mmHg 77%

    Day after tomorrow, 27 March, Wednesday

    Time Temperature Precipitation Wind Pressure Humidity
    00:00 +9°C° 0 mm 2 mps 755 mmHg 79%
    01:00 +10°C° 0 mm 1 mps 756 mmHg 80%
    02:00 +10°C° 0 mm 1 mps 756 mmHg 82%
    03:00 +9°C° 0.1 mm 1 mps 756 mmHg 80%
    04:00 +8°C° 0.1 mm 1 mps 756 mmHg 78%
    05:00 +8°C° 0.1 mm 1 mps 756 mmHg 76%
    06:00 +7°C° 0 mm 2 mps 756 mmHg 70%
    07:00 +7°C° 0 mm 2 mps 756 mmHg 64%
    08:00 +8°C° 0 mm 2 mps 757 mmHg 58%
    09:00 +9°C° 0 mm 2 mps 757 mmHg 51%
    10:00 +12°C° 0 mm 2 mps 757 mmHg 44%
    11:00 +13°C° 0 mm 2 mps 757 mmHg 38%
    12:00 +14°C° 0 mm 2 mps 757 mmHg 35%
    13:00 +15°C° 0 mm 2 mps 757 mmHg 33%
    14:00 +16°C° 0 mm 2 mps 757 mmHg 30%
    15:00 +15°C° 0 mm 1 mps 757 mmHg 30%
    16:00 +15°C° 0 mm 1 mps 756 mmHg 30%
    17:00 +15°C° 0 mm 1 mps 756 mmHg 30%
    18:00 +14°C° 0 mm 1 mps 757 mmHg 35%
    19:00 +13°C° 0 mm 1 mps 758 mmHg 41%
    20:00 +12°C° 0 mm 2 mps 758 mmHg 46%
    21:00 +10°C° 0 mm 3 mps 759 mmHg 51%
    22:00 +10°C° 0 mm 4 mps 759 mmHg 56%
    23:00 +8°C° 0 mm 5 mps 759 mmHg 60%

    28 March, Thursday

    Time Temperature Precipitation Wind Pressure Humidity
    00:00 +7°C° 0 mm 6 mps 760 mmHg 59%
    01:00 +7°C° 0 mm 6 mps 760 mmHg 57%
    02:00 +5°C° 0 mm 6 mps 760 mmHg 56%
    03:00 +6°C° 0 mm 5 mps 760 mmHg 56%
    04:00 +6°C° 0 mm 5 mps 761 mmHg 55%
    05:00 +5°C° 0 mm 4 mps 761 mmHg 54%
    06:00 +6°C° 0 mm 4 mps 761 mmHg 54%
    07:00 +6°C° 0 mm 4 mps 761 mmHg 53%
    08:00 +7°C° 0 mm 3 mps 761 mmHg 52%
    09:00 +8°C° 0 mm 3 mps 761 mmHg 49%
    10:00 +9°C° 0 mm 3 mps 761 mmHg 45%
    11:00 +12°C° 0 mm 2 mps 761 mmHg 42%
    12:00 +12°C° 0 mm 2 mps 761 mmHg 40%
    13:00 +13°C° 0 mm 2 mps 761 mmHg 38%
    14:00 +14°C° 0 mm 1 mps 760 mmHg 36%
    15:00 +14°C° 0 mm 1 mps 760 mmHg 36%
    16:00 +14°C° 0 mm 1 mps 760 mmHg 36%
    17:00 +14°C° 0 mm 1 mps 760 mmHg 36%
    18:00 +13°C° 0 mm 2 mps 760 mmHg 39%
    19:00 +12°C° 0 mm 2 mps 761 mmHg 42%
    20:00 +10°C° 0 mm 2 mps 761 mmHg 46%
    21:00 +9°C° 0.1 mm 3 mps 762 mmHg 47%
    22:00 +9°C° 0.1 mm 3 mps 762 mmHg 49%
    23:00 +8°C° 0.1 mm 4 mps 762 mmHg 50%

    29 March, Friday

    Time Temperature Precipitation Wind Pressure Humidity
    00:00 +7°C° 0 mm 4 mps 763 mmHg 51%
    01:00 +8°C° 0 mm 3 mps 763 mmHg 53%
    02:00 +7°C° 0 mm 3 mps 763 mmHg 54%
    03:00 +7°C° 0 mm 3 mps 763 mmHg 53%
    04:00 +6°C° 0 mm 2 mps 764 mmHg 53%
    05:00 +6°C° 0 mm 2 mps 764 mmHg 52%
    06:00 +6°C° 0 mm 2 mps 764 mmHg 49%
    07:00 +6°C° 0 mm 2 mps 764 mmHg 46%
    08:00 +7°C° 0 mm 3 mps 765 mmHg 43%
    09:00 +8°C° 0 mm 2 mps 764 mmHg 41%
    10:00 +9°C° 0 mm 2 mps 764 mmHg 38%
    11:00 +9°C° 0 mm 2 mps 764 mmHg 35%
    12:00 +11°C° 0 mm 1 mps 764 mmHg 35%
    13:00 +12°C° 0 mm 1 mps 763 mmHg 34%
    14:00 +13°C° 0 mm 1 mps 763 mmHg 34%
    15:00 +13°C° 0 mm 1 mps 762 mmHg 34%
    16:00 +13°C° 0 mm 2 mps 762 mmHg 35%
    17:00 +13°C° 0 mm 2 mps 761 mmHg 36%
    18:00 +12°C° 0 mm 2 mps 761 mmHg 38%
    19:00 +10°C° 0 mm 2 mps 762 mmHg 41%
    20:00 +8°C° 0 mm 2 mps 762 mmHg 44%
    21:00 +8°C° 0 mm 2 mps 762 mmHg 46%
    22:00 +7°C° 0 mm 2 mps 762 mmHg 48%
    23:00 +7°C° 0 mm 2 mps 762 mmHg 50%

    30 March, Saturday

    Time Temperature Precipitation Wind Pressure Humidity
    00:00 +7°C° 0 mm 1 mps 762 mmHg 51%
    01:00 +7°C° 0 mm 1 mps 761 mmHg 52%
    02:00 +7°C° 0 mm 1 mps 761 mmHg 52%
    03:00 +6°C° 0 mm 1 mps 761 mmHg 54%
    04:00 +6°C° 0 mm 1 mps 761 mmHg 55%
    05:00 +6°C° 0 mm 1 mps 761 mmHg 57%
    06:00 +7°C° 0 mm 1 mps 761 mmHg 56%
    07:00 +8°C° 0 mm 1 mps 761 mmHg 55%
    08:00 +8°C° 0 mm 1 mps 761 mmHg 54%
    09:00 +10°C° 0 mm 1 mps 760 mmHg 50%
    10:00 +12°C° 0 mm 2 mps 760 mmHg 46%
    11:00 +14°C° 0 mm 2 mps 760 mmHg 41%
    12:00 +14°C° 0 mm 3 mps 759 mmHg 39%
    13:00 +17°C° 0 mm 3 mps 758 mmHg 36%
    14:00 +18°C° 0 mm 3 mps 758 mmHg 34%
    15:00 +18°C° 0 mm 3 mps 757 mmHg 34%
    16:00 +18°C° 0 mm 3 mps 757 mmHg 35%
    17:00 +18°C° 0 mm 3 mps 756 mmHg 36%
    18:00 +16°C° 0 mm 3 mps 757 mmHg 41%
    19:00 +15°C° 0 mm 2 mps 757 mmHg 47%
    20:00 +13°C° 0 mm 2 mps 757 mmHg 52%
    21:00 +12°C° 0 mm 1 mps 756 mmHg 54%
    22:00 +12°C° 0 mm 1 mps 756 mmHg 56%
    23:00 +11°C° 0 mm 1 mps 756 mmHg 58%
    Show more